Wind_Speed
17 19 20 19 18 17 15 14 14 13 12 12 11 11 11 11 11 11 11 12 13 13 12 11 11 11 11 12 12 12 12 11 11 11 12 11 12 12 11 11 12 13 13 13 13 14 13 12 13 14 13 13 13 13 13 13 13 12 12 13 14 15 15 15 15 15 16 17 17 17 20 21 18 16 16 16 16 16 13 12 15 12 9 12 13
19 21 19 19 19 18 16 15 14 14 13 13 12 12 11 11 11 11 12 12 13 13 12 11 10 11 11 12 12 12 12 12 12 12 11 11 11 12 11 12 13 13 13 13 13 13 13 13 13 13 12 13 13 12 11 12 13 14 15 15 16 15 15 15 16 16 16 16 15 14 16 20 19 16 15 15 14 16 15 11 12 12 11 10 10
20 20 19 20 19 19 17 15 15 14 14 13 12 12 12 12 12 11 12 12 12 12 12 11 10 11 12 12 12 12 12 13 12 11 11 11 11 12 12 13 13 13 14 13 13 14 14 14 13 13 12 13 13 12 12 13 14 16 16 15 15 15 15 15 16 16 16 15 12 11 12 16 20 16 15 14 14 16 16 15 14 14 12 10 10
20 21 20 20 19 19 17 16 16 14 15 14 13 13 12 12 11 11 11 12 12 12 12 11 11 11 12 11 11 12 12 12 12 11 11 11 12 12 12 12 13 13 14 14 14 14 14 14 13 13 14 14 13 12 12 13 15 15 14 13 13 13 13 14 16 16 15 13 9 7 7 10 16 16 14 15 15 15 15 15 15 15 13 11 12
20 21 20 20 19 18 17 17 17 15 15 14 14 12 12 12 11 11 11 12 12 12 12 11 11 12 11 10 10 12 12 11 11 12 11 11 12 12 12 12 13 13 14 13 13 14 14 14 14 14 14 13 13 12 12 13 13 13 12 11 11 11 11 11 13 15 15 14 11 7 4 6 11 15 14 15 14 13 14 14 15 16 13 11 12
20 21 20 20 19 18 18 19 17 16 16 15 14 12 12 12 11 11 11 11 11 11 12 11 11 12 10 10 11 10 11 11 11 11 11 12 12 12 12 12 13 14 14 13 12 14 15 15 14 13 13 12 11 10 12 12 12 11 11 10 10 10 9 9 10 12 13 13 11 7 6 7 9 13 14 14 13 12 12 13 15 16 14 12 12
19 20 20 20 19 19 19 19 17 16 16 15 13 13 12 12 11 11 11 11 11 11 12 12 11 11 10 10 10 8 9 11 10 10 11 12 13 12 12 12 12 13 13 12 13 14 14 13 13 12 11 10 10 11 12 12 11 11 10 10 9 9 9 10 12 11 12 11 9 6 7 8 8 11 13 13 13 12 11 12 13 14 15 12 12
17 18 19 19 19 19 21 20 18 17 16 15 14 13 13 12 11 10 10 10 11 12 12 12 11 10 9 9 9 7 9 9 9 9 9 10 12 12 12 12 12 12 12 12 12 13 13 12 12 11 10 10 11 12 12 12 12 11 10 9 8 8 7 8 10 11 12 9 7 7 7 7 8 10 11 13 13 11 11 12 11 11 14 14 13
16 17 18 18 18 19 21 21 18 17 16 16 15 14 13 13 11 11 10 11 11 12 12 12 11 10 9 9 8 7 8 8 7 7 8 9 11 11 11 11 11 12 12 12 12 12 12 11 10 10 10 11 11 12 12 12 11 10 9 8 7 7 7 7 7 8 9 6 7 9 9 8 8 9 10 12 12 11 10 11 10 9 12 14 14
16 17 17 18 18 20 21 20 18 17 17 16 16 15 14 13 13 12 11 11 11 11 11 11 11 10 9 8 8 7 7 6 6 7 8 9 11 11 10 11 11 11 11 12 11 11 11 10 10 10 11 11 11 11 11 11 11 10 8 7 6 6 6 6 5 6 5 4 6 6 8 9 9 9 10 11 11 11 11 11 11 11 13 14 13
16 16 16 17 18 20 21 20 18 17 17 16 15 14 14 14 13 13 11 11 10 11 11 11 10 10 9 9 7 7 6 6 6 7 8 10 11 11 10 10 10 10 10 10 10 10 9 9 10 10 10 10 11 10 10 10 10 9 9 8 7 5 4 3 3 4 4 4 6 4 6 8 8 9 9 10 10 11 11 12 13 13 14 14 14
15 15 15 18 18 19 21 19 18 17 17 15 14 14 14 14 13 12 11 10 10 10 10 10 10 9 9 8 7 6 6 7 6 7 8 10 11 11 10 10 11 10 10 10 10 9 9 9 9 9 9 10 9 9 9 9 8 8 8 8 7 6 5 4 5 4 3 4 6 4 5 7 7 8 8 9 10 10 12 12 13 13 13 14 14
15 15 16 18 17 19 20 19 18 17 17 15 14 15 14 13 12 12 11 10 9 9 10 10 10 9 8 8 7 6 6 7 7 7 9 10 11 10 10 10 10 10 10 10 9 9 9 8 7 7 8 8 8 8 8 7 7 6 6 6 5 5 4 5 5 4 4 5 5 5 5 5 6 7 8 8 9 10 11 11 12 12 13 14 14
16 16 17 17 17 19 20 18 17 17 16 15 15 14 13 13 12 12 11 10 9 9 10 10 9 8 9 8 7 6 6 7 7 8 9 11 11 11 11 10 9 9 9 9 8 8 8 7 6 6 6 6 6 7 6 6 5 5 4 4 4 4 3 4 6 4 5 4 4 7 4 5 6 8 7 8 9 9 9 10 10 11 12 13 14
15 17 16 15 16 17 19 18 17 16 16 15 14 13 13 12 12 11 11 10 9 9 9 9 8 8 8 8 7 6 7 8 8 9 9 9 11 11 11 11 10 9 9 9 8 8 7 5 5 5 5 5 4 4 4 4 3 3 3 3 3 4 5 8 9 5 4 5 5 8 6 5 8 8 7 8 8 9 7 8 9 9 11 11 13
15 16 15 15 16 17 17 16 16 16 15 15 14 13 12 11 10 10 9 9 8 8 9 8 8 7 8 8 7 7 8 9 8 9 9 8 9 10 11 11 11 10 9 9 8 7 6 5 5 4 3 3 2 2 2 2 2 1 0 1 2 4 7 8 9 6 5 7 7 8 7 6 9 8 8 8 8 9 7 6 8 8 10 10 11
15 15 16 15 16 17 16 16 16 14 14 14 13 13 12 11 9 8 7 7 7 8 7 7 7 7 7 8 7 8 8 9 9 9 9 9 9 9 9 11 11 10 9 8 8 7 6 5 4 3 3 2 2 1 1 1 1 2 2 3 3 5 8 7 8 8 5 7 8 7 7 7 9 9 8 8 8 9 7 6 8 8 10 10 10
14 14 16 15 16 17 16 17 16 14 15 14 13 13 12 10 8 7 6 6 6 7 7 7 8 8 8 8 8 7 8 9 10 11 10 10 10 10 10 11 10 9 9 8 7 7 6 6 5 4 3 3 3 2 2 2 2 3 3 4 5 7 7 5 6 8 6 7 8 7 7 8 10 9 8 8 8 8 7 6 8 9 10 10 10
13 14 16 16 16 17 17 18 17 17 17 15 14 14 13 10 8 7 6 5 6 7 9 10 10 10 10 9 9 8 7 8 9 11 12 11 10 10 10 11 10 9 9 8 7 7 6 6 5 5 4 4 4 4 3 3 3 3 4 5 6 6 6 5 7 9 9 7 8 8 7 9 9 8 7 7 7 7 6 6 9 11 11 12 11
12 12 14 15 15 16 18 18 18 18 17 16 15 14 13 11 9 7 6 6 7 9 11 12 12 11 11 11 10 9 8 7 8 9 11 11 10 10 9 10 10 9 8 8 7 7 6 6 6 5 5 4 4 4 4 4 4 3 4 4 5 5 4 6 6 8 9 6 7 7 8 10 9 8 8 7 6 6 6 7 10 12 13 13 13
12 12 13 14 15 15 17 17 17 18 17 17 16 13 12 11 9 7 7 8 9 10 11 12 11 12 12 11 11 8 6 7 7 8 8 9 9 10 9 9 9 8 8 7 7 6 6 6 6 5 5 4 4 5 4 3 3 3 3 4 5 4 5 5 6 6 7 8 7 7 8 9 9 9 8 8 7 6 7 9 11 13 14 13 12
13 13 13 14 15 15 15 16 17 17 17 18 17 15 13 12 10 8 8 9 10 10 10 10 9 10 10 8 8 7 6 7 7 7 7 7 8 8 8 8 7 7 6 6 6 5 6 6 6 5 4 3 4 6 7 4 1 2 3 4 4 5 5 3 4 5 8 8 7 8 8 8 8 9 9 10 9 8 9 11 12 12 12 12 11
14 14 14 14 14 14 15 15 16 17 16 17 16 16 14 13 11 10 10 10 11 10 9 9 9 8 6 6 6 7 7 8 9 8 7 7 7 7 7 7 6 6 5 5 5 4 4 4 4 3 2 2 3 6 9 7 2 1 3 5 5 5 3 4 4 6 8 7 7 7 7 7 8 9 9 10 10 9 10 11 11 11 11 11 12
14 15 15 15 15 15 15 14 15 17 16 15 14 14 13 13 12 11 11 11 11 10 9 9 9 8 7 7 7 7 7 8 9 9 8 6 6 6 6 6 6 6 6 5 5 4 4 3 3 3 2 3 4 4 4 5 2 3 3 4 4 4 5 8 8 9 9 8 8 6 6 7 7 9 10 10 11 10 10 10 10 11 12 12 13
15 15 15 15 15 15 15 13 15 16 15 14 13 12 12 13 12 11 12 12 12 10 10 9 8 8 7 7 7 6 7 7 8 8 8 8 7 6 7 7 7 6 6 6 6 5 4 4 5 3 2 3 2 1 0 0 1 3 3 3 4 4 6 8 8 10 10 9 9 7 6 6 7 9 10 11 11 10 10 10 10 11 11 11 12
15 15 15 16 16 15 15 14 14 15 13 13 12 12 12 12 11 12 12 11 11 10 10 9 9 9 8 7 6 6 6 7 7 6 6 9 9 8 9 8 8 10 8 7 8 6 4 5 6 3 1 1 1 1 1 2 2 2 3 4 5 5 6 7 7 10 10 10 10 8 7 7 7 9 11 12 12 11 11 11 11 11 10 11 11
15 15 16 15 15 14 15 14 14 14 13 12 12 12 12 11 11 12 12 11 11 10 10 9 9 9 8 7 7 6 6 6 6 4 4 7 8 8 9 8 9 11 8 6 8 6 3 2 3 2 1 1 2 1 2 3 3 3 3 4 4 5 6 8 11 12 12 11 11 9 8 7 6 7 10 12 13 13 13 14 13 13 12 12 13
15 17 17 16 15 14 15 15 14 14 13 12 12 12 12 11 11 12 12 12 11 10 10 9 9 9 8 7 7 6 5 5 5 4 4 5 5 5 6 6 6 7 4 3 4 2 2 1 1 2 2 2 2 2 2 3 3 3 3 4 5 5 6 8 11 12 11 11 11 9 8 7 6 5 7 9 12 13 14 16 16 16 16 15 14
14 16 17 16 16 15 16 15 14 14 13 13 13 12 12 12 12 12 12 12 12 10 10 10 9 8 7 7 6 5 4 4 4 4 4 3 3 3 3 2 1 2 2 2 2 3 2 3 3 2 2 2 2 2 2 3 4 4 4 4 5 6 6 6 9 11 11 10 11 10 8 6 6 5 4 5 8 10 12 15 15 16 17 18 16
13 14 15 16 16 16 16 16 15 14 13 13 13 12 13 12 12 12 12 12 11 10 10 9 8 7 6 6 5 4 4 3 3 3 4 3 4 3 2 1 1 3 3 3 3 3 3 3 3 3 2 2 3 3 2 3 3 4 5 5 5 6 7 7 8 10 10 10 11 11 10 8 7 6 5 5 5 7 10 13 14 14 15 15 15
14 15 15 15 16 17 17 16 15 14 14 13 13 13 14 13 12 13 12 11 11 10 10 8 8 7 6 6 4 4 3 2 3 3 4 4 4 4 2 2 2 2 2 2 3 3 3 3 3 3 3 3 3 4 4 3 4 5 6 6 6 7 7 8 8 9 10 9 9 10 11 11 10 9 8 8 9 8 8 10 11 13 14 13 15
16 15 14 16 17 18 17 16 15 15 14 13 13 14 14 13 13 13 11 11 10 10 9 8 7 6 6 5 4 4 3 3 4 3 5 5 4 4 3 2 3 2 2 2 3 3 3 3 3 3 3 3 3 4 4 5 5 6 7 7 7 8 8 9 9 10 10 9 9 9 9 12 13 13 12 13 12 12 12 11 10 10 10 10 11
17 16 15 17 19 18 17 16 15 15 15 14 14 14 14 13 13 11 11 11 11 10 8 8 7 6 6 5 4 4 4 4 5 5 6 6 4 4 4 4 3 3 2 3 3 3 2 2 3 3 3 3 3 4 4 5 6 6 7 7 8 9 9 9 9 9 10 10 10 9 8 9 11 12 14 15 14 14 14 14 14 12 11 10 11
16 17 16 18 19 18 18 17 16 16 16 15 15 15 14 13 12 11 11 12 11 9 8 7 7 6 6 5 5 5 4 5 5 5 5 5 5 5 4 4 4 3 3 2 2 2 2 2 3 3 2 2 3 4 3 5 5 6 7 7 8 9 9 9 9 9 10 10 10 10 9 8 8 9 11 14 15 15 15 15 16 16 15 14 14
16 18 18 18 19 18 17 17 17 17 17 16 15 15 14 13 12 11 12 11 10 9 8 7 7 6 5 4 4 5 4 5 5 5 5 4 5 5 3 4 4 3 3 3 2 2 2 3 4 3 2 2 3 4 4 4 5 6 7 7 8 9 9 9 9 9 9 9 9 9 9 8 8 8 8 10 13 16 16 15 16 18 18 16 16
18 19 19 19 19 19 18 17 19 19 18 17 15 14 14 12 12 12 11 11 9 9 8 7 7 5 5 4 4 4 4 5 5 5 5 4 4 4 4 4 5 4 3 3 2 2 3 4 4 4 2 1 2 5 4 4 6 6 7 8 8 8 8 9 9 9 9 8 8 8 9 9 9 9 8 8 9 13 16 16 17 18 18 18 16
19 19 20 20 20 19 18 18 19 20 18 17 15 14 14 12 12 11 11 11 9 8 8 7 7 5 4 4 4 4 4 5 5 4 4 3 3 4 4 5 5 4 4 3 3 3 3 3 3 3 2 1 2 5 5 5 7 7 8 8 8 8 8 8 9 8 8 8 8 8 8 8 8 8 9 9 9 10 12 15 16 16 18 18 18
19 20 20 20 20 19 19 19 19 20 19 17 16 15 15 13 12 12 11 10 9 8 8 7 7 6 5 4 4 4 4 5 4 3 5 3 2 4 5 5 5 4 4 3 3 3 2 2 2 1 1 2 2 7 7 7 8 8 9 9 8 9 8 8 8 8 7 7 7 7 8 8 8 8 9 9 9 9 10 12 13 13 17 19 20
19 20 21 21 21 20 19 19 20 20 19 18 17 15 15 14 13 12 11 10 9 8 8 7 6 5 5 4 3 3 2 2 1 2 4 4 3 5 5 5 4 3 2 2 3 2 1 1 1 1 1 1 3 8 9 9 9 9 10 10 9 9 8 8 7 7 7 7 7 7 6 7 8 8 9 8 9 10 10 10 10 10 13 17 20
19 21 22 22 22 21 20 20 21 21 19 18 18 16 15 14 13 12 11 10 9 8 7 6 6 5 4 3 3 4 3 1 1 3 4 4 5 5 5 4 3 2 1 1 2 2 1 0 0 1 2 2 5 9 11 11 11 11 10 10 10 9 8 7 6 6 7 6 6 6 5 6 6 7 7 7 8 9 10 11 10 10 10 12 15
19 21 23 23 23 22 22 21 22 22 20 20 18 17 16 14 14 13 12 11 10 8 7 7 6 5 4 4 5 5 5 3 3 4 4 4 5 5 4 3 2 2 1 0 0 0 1 1 1 2 3 5 7 10 11 11 11 9 9 9 9 8 7 6 6 6 6 6 6 5 5 5 4 5 6 6 7 8 10 10 10 10 10 10 10
20 22 23 24 23 23 22 22 23 23 21 18 17 17 16 14 14 13 12 11 10 8 8 7 6 5 5 6 6 5 5 4 4 4 4 4 4 4 3 1 0 0 1 1 1 1 2 2 3 3 4 6 7 10 12 10 8 8 8 7 6 6 6 6 6 6 6 5 5 5 4 4 4 4 4 5 7 7 8 9 9 10 10 10 10
21 22 23 24 23 23 23 22 23 23 20 19 19 17 15 13 13 13 13 11 8 8 8 7 6 7 7 7 6 6 6 5 4 4 3 3 2 2 1 1 1 2 3 2 1 2 2 3 4 4 5 6 6 7 11 8 4 6 8 5 5 4 4 5 6 6 6 5 4 4 4 4 4 4 4 5 5 6 6 8 9 9 10 9 10
22 23 24 23 23 24 24 23 24 21 19 20 20 16 14 14 12 12 13 11 8 7 8 7 8 9 9 8 8 8 7 6 3 2 1 1 0 1 2 2 2 2 2 2 2 2 3 3 4 4 5 6 6 5 6 6 4 3 4 3 5 5 3 5 7 6 5 5 4 4 4 4 4 4 4 4 5 5 5 6 7 8 9 9 9
23 24 24 23 23 23 23 23 23 21 19 20 19 17 15 14 12 12 12 10 8 7 8 8 8 9 11 11 9 8 6 4 2 0 1 2 2 2 2 3 2 1 2 3 2 3 3 3 3 3 2 4 7 5 3 4 2 2 4 3 3 3 2 8 8 4 4 4 4 4 4 4 3 3 4 5 6 5 4 5 6 6 8 8 8
24 24 24 23 23 21 21 21 21 21 20 20 20 19 17 15 13 13 12 10 9 9 10 10 8 10 12 11 8 7 4 2 1 1 1 2 2 3 3 2 2 2 3 3 4 4 4 4 3 3 3 4 6 6 4 3 1 1 3 3 1 3 3 9 7 4 4 3 3 4 4 4 3 3 4 4 6 7 6 6 5 6 7 8 8
24 25 22 23 23 22 23 23 21 22 22 21 22 21 18 16 14 14 13 11 11 11 11 11 10 10 10 8 6 6 4 2 1 1 1 1 2 2 2 2 3 3 4 4 4 4 4 4 4 4 5 4 5 6 6 5 4 4 4 4 3 4 4 4 3 4 5 4 3 3 4 4 3 3 3 4 4 5 6 6 6 6 7 8 8
24 23 22 25 24 23 25 26 22 22 22 22 22 19 18 18 16 15 13 11 12 12 12 11 10 9 8 7 6 4 4 3 2 2 2 2 2 2 3 3 4 4 5 5 5 5 5 5 5 6 5 5 4 5 6 6 6 6 6 6 5 5 5 4 3 1 2 5 5 4 4 3 3 3 3 3 4 4 5 6 6 6 7 8 8
23 21 26 29 25 24 27 26 21 20 22 22 21 18 17 16 15 15 14 11 12 14 13 12 10 9 9 8 6 5 5 4 3 3 2 3 3 3 4 4 5 5 6 6 7 7 7 7 7 7 7 7 6 6 6 6 6 6 6 6 7 6 5 5 4 4 2 2 4 5 6 4 3 3 2 2 2 3 4 5 6 7 8 7 8
21 21 28 30 26 25 26 24 21 19 22 22 20 19 18 16 16 16 15 14 14 15 15 15 13 12 11 10 9 7 6 5 4 4 3 3 4 4 5 5 6 7 7 8 8 8 9 9 9 9 9 8 8 8 7 7 6 6 5 4 5 4 4 4 2 2 3 2 2 3 5 5 4 3 1 3 2 2 4 5 5 7 8 8 9
21 22 28 29 26 24 22 23 24 21 22 23 22 21 18 18 19 16 15 15 16 17 18 17 16 14 13 12 10 9 7 6 5 5 5 5 5 5 6 6 7 8 8 9 9 9 10 10 11 11 11 10 10 9 9 9 8 8 7 6 5 5 4 4 3 2 2 2 2 2 2 2 3 4 3 2 1 2 4 5 6 7 8 9 10
Wind_Direction
142 136 142 158 156 153 152 143 139 140 143 144 145 142 141 139 137 136 133 131 128 124 124 126 123 120 116 110 106 100 93 86 78 73 70 67 65 75 92 96 98 98 100 103 103 106 110 103 96 95 93 91 90 91 89 92 91 87 88 91 91 87 84 80 75 75 72 66 58 51 40 36 41 47 45 41 42 46 64 67 61 51 18 26 22
138 135 140 153 154 153 152 144 141 144 144 143 145 143 140 139 138 136 134 132 130 129 128 126 122 121 116 111 105 98 94 86 81 78 79 77 72 79 90 100 102 102 103 105 107 110 109 104 99 98 96 94 93 92 91 94 96 95 96 93 90 87 83 78 76 74 69 65 60 58 44 31 32 44 47 42 42 43 53 57 59 46 18 36 28
134 134 139 150 153 152 151 144 142 145 143 142 144 143 140 139 140 138 137 135 133 133 130 127 125 122 115 108 103 103 97 88 86 82 82 79 77 85 92 100 103 104 106 106 108 109 106 104 102 99 96 95 95 94 93 96 96 94 92 88 86 84 81 78 76 75 70 65 60 62 58 36 26 37 48 43 45 41 41 39 41 40 21 34 31
134 133 140 149 151 152 151 144 144 144 142 142 143 144 143 142 143 143 141 138 136 135 132 131 128 121 112 108 108 108 99 89 89 82 80 80 79 90 94 99 105 107 109 107 108 109 107 105 101 98 96 96 96 94 94 96 94 90 87 85 85 83 81 80 77 76 72 66 61 58 72 50 24 30 48 44 44 41 36 35 32 32 30 33 26
134 134 140 144 147 152 149 144 143 143 143 144 144 145 145 144 146 147 145 140 138 135 132 133 127 119 116 116 113 108 100 93 88 83 84 87 87 91 95 101 106 109 110 109 113 113 107 103 99 98 98 97 95 94 96 95 91 85 83 83 82 83 83 83 80 77 73 68 63 55 64 69 36 29 44 48 43 43 37 33 31 27 37 46 27
134 134 140 143 145 150 148 143 143 144 144 145 146 147 146 145 149 150 148 144 140 135 132 133 127 124 124 115 108 103 103 101 93 90 88 89 93 94 96 102 108 110 111 109 110 108 103 102 101 100 99 97 96 98 96 88 82 78 78 81 82 82 82 82 81 74 70 63 55 55 53 59 58 36 39 52 44 45 39 30 28 18 25 44 39
134 136 140 144 145 150 148 144 146 147 146 148 148 149 150 147 148 150 150 146 142 137 134 135 133 129 121 111 107 105 110 109 101 95 90 91 95 98 101 105 110 113 113 109 105 104 103 103 101 99 100 98 97 95 89 82 76 75 77 80 84 84 84 85 81 72 63 52 35 35 46 50 64 41 37 52 47 44 40 33 27 11 7 20 41
135 137 141 144 148 153 148 145 148 149 149 150 150 151 151 150 150 150 149 147 145 140 138 138 135 129 122 118 114 109 111 110 103 92 90 100 103 104 107 110 114 115 114 111 108 107 107 106 103 99 101 101 96 91 84 80 76 75 79 82 88 87 88 85 80 74 63 51 38 29 26 42 67 45 36 50 48 46 43 40 27 6 360 4 25
136 137 140 142 150 155 147 147 151 150 151 152 151 151 151 151 149 148 147 146 147 142 139 137 132 129 126 119 114 113 111 105 100 90 92 110 116 111 108 114 117 117 118 117 115 113 113 111 109 106 103 99 93 88 83 80 77 76 80 84 89 87 81 78 76 71 57 51 58 46 24 29 63 49 36 47 48 47 46 48 34 12 6 5 12
136 134 139 140 150 155 149 149 151 150 152 152 149 150 151 147 145 146 145 145 147 143 138 132 128 129 124 120 122 124 114 104 99 95 102 118 128 121 110 115 117 119 121 121 119 117 116 116 115 109 102 97 90 86 82 78 78 77 77 78 81 83 77 77 68 48 26 35 55 49 34 34 59 50 35 42 44 44 41 43 35 22 15 11 9
134 132 137 141 150 154 151 150 150 152 152 150 146 150 150 144 146 145 144 146 148 142 136 131 130 131 130 129 130 128 117 112 107 105 114 123 132 126 115 118 121 123 126 125 124 122 121 124 119 110 103 98 91 86 82 79 77 75 73 70 68 71 67 52 18 2 339 26 35 18 34 44 58 45 33 37 36 38 34 33 28 21 16 14 11
133 131 136 142 151 154 151 150 151 153 151 148 147 152 150 147 149 145 146 148 148 142 135 134 136 134 134 134 134 131 123 122 117 115 124 128 131 127 123 125 127 128 130 133 133 132 132 130 121 110 106 100 96 91 85 81 76 73 70 66 64 61 60 36 347 326 341 23 20 12 30 42 48 35 32 32 28 33 30 28 24 18 17 15 11
133 129 132 137 147 154 152 151 153 153 148 147 150 153 151 150 149 147 149 150 149 144 138 136 134 137 141 142 142 142 137 137 130 125 130 132 131 132 135 134 135 135 135 141 142 141 139 133 124 114 110 105 103 98 93 88 80 77 71 67 60 49 56 41 1 334 5 11 5 2 27 49 36 22 26 25 21 27 26 24 19 14 14 12 9
133 130 133 134 142 154 154 153 154 150 146 149 154 152 151 152 148 149 153 154 155 152 150 146 146 154 161 165 161 156 150 146 138 131 131 132 134 138 145 147 148 148 146 148 147 146 147 141 132 121 117 114 111 109 105 101 94 87 76 67 55 28 351 340 337 341 0 358 5 356 17 63 21 5 12 15 15 18 23 21 15 11 9 5 3
132 130 134 136 140 151 154 154 152 148 149 152 154 150 151 153 150 153 157 161 162 164 168 165 171 174 179 189 187 175 159 147 141 138 135 133 134 139 146 154 159 159 157 156 153 156 157 150 140 134 131 127 122 119 114 114 113 102 88 63 48 15 348 324 319 332 355 348 9 6 17 38 7 355 353 360 5 3 8 9 3 360 359 355 354
131 132 132 136 141 148 152 155 153 149 153 153 152 151 154 156 157 161 165 172 174 180 181 175 182 183 187 199 198 185 160 146 145 144 145 141 135 137 140 145 152 155 158 160 161 163 160 158 153 152 147 145 139 134 134 132 140 159 126 16 7 352 349 338 324 334 7 359 7 15 17 12 354 344 339 347 357 356 355 351 348 344 346 347 347
134 137 134 138 146 149 152 158 157 155 158 155 153 155 158 159 162 169 173 182 187 188 179 167 169 170 181 185 179 173 157 152 154 153 152 149 142 140 137 136 141 146 153 158 162 164 163 169 168 172 175 181 192 193 214 234 239 262 279 307 327 329 334 346 330 323 11 14 3 10 14 359 340 336 336 340 351 359 357 343 338 335 337 339 341
142 145 138 141 151 153 153 160 161 159 160 155 155 159 160 159 163 173 178 188 189 174 155 143 140 143 152 154 154 157 157 159 157 158 156 152 147 143 139 136 138 141 148 155 161 166 169 175 180 188 200 213 225 241 252 265 275 284 290 299 311 316 329 349 318 320 21 39 24 19 6 348 336 337 340 340 349 358 356 340 333 332 331 332 333
151 152 143 146 155 157 156 161 161 159 160 154 157 161 159 157 162 173 182 187 174 154 141 132 126 126 129 131 137 138 143 151 150 151 151 151 148 144 142 140 143 147 150 157 162 169 176 182 190 196 208 226 239 255 263 274 284 285 294 302 307 316 334 333 316 340 12 34 45 36 1 346 340 341 344 342 346 354 352 332 327 329 328 326 324
155 157 153 152 159 161 157 162 163 160 160 155 155 157 156 157 161 173 183 176 162 153 143 132 125 119 118 117 115 112 114 125 135 143 148 152 152 150 151 148 150 155 158 165 170 177 185 191 200 205 215 227 242 257 264 270 275 287 296 300 312 320 312 321 344 7 13 32 48 28 358 348 342 343 346 343 343 351 342 322 324 328 326 325 324
157 162 161 156 162 165 160 164 166 163 159 154 152 150 153 151 153 169 175 170 164 156 141 130 126 116 109 106 106 117 124 120 131 149 156 159 161 160 162 162 162 167 171 175 182 188 196 205 211 216 224 236 247 247 247 255 268 286 300 309 318 306 287 331 10 16 32 46 37 13 357 348 341 344 345 340 342 343 333 328 329 327 324 324 327
165 167 166 164 169 169 167 167 165 163 159 153 149 147 147 141 145 158 161 165 157 146 138 134 136 126 116 113 124 154 163 146 149 159 162 169 176 173 173 178 177 181 185 188 196 201 208 217 219 222 226 239 245 232 223 219 266 298 312 320 298 284 293 12 30 20 48 49 24 13 1 349 344 347 347 345 347 343 337 336 332 327 326 328 331
171 168 166 172 176 170 169 169 164 162 160 154 148 147 147 143 150 159 159 163 152 145 151 153 154 154 154 158 167 178 171 159 160 164 170 178 187 188 188 189 190 191 188 183 183 184 194 206 203 198 191 201 238 238 226 208 198 311 307 308 283 286 340 75 62 47 63 51 30 22 5 356 352 353 356 356 356 352 346 341 336 336 335 333 337
175 170 166 174 178 170 167 169 166 162 158 154 150 150 153 153 157 163 163 166 163 163 169 166 168 175 180 182 186 182 173 164 159 165 171 173 182 187 181 177 178 171 163 162 160 162 162 162 163 157 183 219 234 250 230 200 214 274 278 294 296 322 31 59 58 67 67 53 47 35 19 9 2 4 4 6 4 357 353 349 347 349 347 344 349
172 168 167 179 180 171 168 169 167 163 158 154 154 156 158 159 162 167 166 171 175 173 172 172 177 183 185 188 193 184 178 170 160 165 171 175 181 180 179 180 178 171 177 181 178 185 181 196 202 191 220 224 223 263 341 238 274 290 300 328 337 347 39 56 60 73 65 56 57 43 34 23 12 15 11 13 12 5 1 358 358 357 354 349 351
168 166 166 179 179 170 167 169 169 166 161 156 157 158 159 164 168 171 171 174 178 175 174 177 181 185 188 192 197 191 183 177 172 174 183 193 196 197 195 189 187 190 204 199 190 195 191 213 216 203 218 195 67 48 31 15 357 346 356 360 357 0 39 62 68 75 69 59 56 46 39 29 24 31 27 24 25 23 19 16 14 10 6 2 2
171 167 165 174 175 171 166 167 169 164 161 158 161 161 162 170 173 178 175 173 177 179 178 179 185 186 187 194 200 201 189 183 189 189 201 209 202 204 198 186 191 193 196 195 191 194 175 200 203 156 88 91 54 40 42 37 23 11 23 18 15 18 34 64 77 82 77 62 52 49 42 34 36 46 49 45 41 41 40 38 34 30 29 26 27
175 163 160 169 171 173 168 169 169 163 162 160 165 167 170 174 174 187 180 170 179 184 179 180 187 188 188 199 205 210 201 190 197 192 202 218 205 211 203 190 198 186 172 179 178 160 113 91 86 85 74 82 61 39 37 41 34 24 36 32 35 40 41 65 81 83 78 66 54 49 45 41 38 41 56 61 57 54 53 50 47 46 44 40 40
176 158 157 165 169 174 170 170 170 166 165 164 171 173 175 175 174 190 182 172 185 183 178 181 184 187 193 203 207 212 210 199 199 197 204 211 206 221 216 193 205 91 75 39 43 47 56 56 51 52 61 82 74 48 40 46 44 33 36 45 49 50 51 61 78 79 75 69 58 48 42 31 27 28 37 57 64 65 60 56 53 52 51 46 44
173 157 159 164 167 174 172 172 171 168 168 169 177 175 176 176 177 191 181 178 190 179 177 182 181 184 190 199 207 209 207 206 204 208 207 203 202 197 181 155 61 37 46 37 30 34 41 46 46 41 44 63 65 48 45 56 61 57 49 54 58 54 54 53 68 75 74 74 61 44 34 25 17 13 16 21 40 58 60 58 54 51 49 45 40
167 156 160 164 168 173 172 174 171 169 173 175 180 175 176 177 180 189 182 183 188 177 180 182 178 181 183 190 201 206 205 210 210 211 206 207 206 183 164 153 111 57 44 42 34 39 38 44 48 44 40 47 60 50 46 53 58 66 63 61 62 61 61 56 61 68 71 79 69 44 29 23 17 14 19 18 22 32 42 50 50 48 45 42 40
164 160 165 163 170 174 172 175 172 173 177 180 182 176 177 179 182 187 181 182 182 179 183 178 177 177 175 186 194 201 203 205 201 202 209 211 206 179 169 170 129 94 60 50 45 47 42 46 50 52 55 58 66 59 58 61 54 57 61 63 64 65 67 65 64 66 68 73 71 61 38 22 15 14 19 21 22 26 30 33 34 35 33 30 31
158 163 174 165 170 174 172 174 173 176 181 183 182 178 179 178 180 184 178 178 181 182 179 172 177 173 170 180 187 193 196 202 196 194 210 208 192 183 179 165 137 111 84 63 56 57 56 53 53 56 60 66 65 60 69 72 61 56 58 63 68 67 70 72 70 69 68 66 63 63 56 37 21 12 9 10 14 21 24 26 26 25 21 15 17
159 162 178 172 170 172 171 174 177 181 184 185 183 179 178 176 179 180 175 177 180 179 174 174 178 171 169 173 184 194 195 200 201 198 206 196 179 183 175 146 125 107 91 73 68 72 61 52 56 56 47 56 62 55 65 76 70 69 68 68 72 72 72 74 74 71 68 65 61 57 52 46 37 23 8 0 1 8 15 18 19 20 20 19 20
169 167 179 176 171 172 172 174 179 184 185 186 185 181 176 176 179 175 174 177 177 176 174 178 177 170 169 175 187 192 191 194 202 205 198 194 185 174 155 123 107 97 87 76 78 75 55 49 47 42 38 47 70 71 71 85 85 78 77 76 76 78 77 75 73 70 67 63 60 56 48 41 36 32 23 9 360 359 3 11 16 13 14 17 19
175 171 177 176 172 173 174 175 180 184 186 187 184 179 177 178 177 172 174 175 174 177 174 174 170 163 167 175 185 181 190 195 201 207 184 190 194 156 129 109 98 92 87 79 80 73 53 52 39 30 38 32 88 96 93 98 96 86 83 81 79 80 80 76 71 66 64 62 59 55 49 43 35 30 27 25 15 1 359 8 15 10 9 16 19
179 171 172 173 173 173 176 179 181 184 184 184 180 177 178 177 174 170 173 174 174 174 169 168 161 161 170 172 179 177 192 198 202 202 158 164 187 132 108 100 94 91 90 81 77 70 58 58 46 37 31 296 127 115 114 108 104 97 87 83 82 81 77 72 67 65 63 62 61 57 52 43 36 34 30 28 26 15 7 8 11 5 1 10 17
180 171 170 171 173 174 180 182 182 184 181 179 177 176 175 174 172 170 172 172 170 167 165 165 155 159 172 167 173 176 190 206 207 174 136 134 141 110 93 87 90 94 103 101 85 69 52 48 53 63 2 292 144 125 125 120 113 106 92 84 81 78 74 70 66 64 64 64 62 60 56 49 41 38 34 32 28 25 21 15 11 2 355 360 10
181 171 170 171 174 177 181 183 182 181 177 176 176 173 173 175 174 171 171 169 166 163 161 159 148 151 162 154 157 160 168 222 211 112 110 113 109 95 83 78 81 92 108 116 111 96 82 42 54 112 79 291 149 127 127 126 115 103 93 84 79 77 72 70 69 67 67 65 65 63 60 54 45 40 37 34 31 27 28 24 20 10 357 357 4
181 172 170 173 176 179 181 183 182 178 171 174 175 171 173 176 174 170 169 167 163 158 152 145 136 137 145 127 115 123 122 126 50 75 90 96 94 86 78 70 65 72 72 98 115 100 128 209 239 148 128 148 148 131 128 126 112 101 95 86 79 77 75 72 74 75 75 69 65 63 61 57 47 41 38 35 35 31 30 27 23 19 10 3 2
179 175 174 176 180 180 182 183 181 175 170 173 175 174 177 179 176 171 166 163 159 155 148 139 132 128 128 118 112 115 119 107 60 59 72 76 80 79 74 68 57 58 51 109 165 98 220 218 189 161 151 153 149 138 137 134 125 118 110 99 86 74 70 75 79 78 79 75 71 66 60 61 55 46 40 37 38 35 34 30 24 21 15 12 7
176 177 178 181 183 183 183 181 176 173 171 171 175 178 182 181 177 171 164 159 159 160 150 139 135 132 130 128 120 107 101 91 64 52 50 53 65 70 72 78 55 94 156 179 189 210 209 197 178 159 148 156 154 148 154 157 149 145 139 127 112 87 75 79 77 76 76 75 77 74 65 62 61 55 45 39 38 36 36 31 25 22 15 14 12
174 180 184 183 182 184 185 179 174 174 171 170 176 183 184 178 172 167 160 152 147 153 147 140 143 146 152 151 139 119 94 81 70 52 36 34 50 56 75 208 249 225 200 194 194 204 198 189 186 164 142 148 154 160 174 196 211 166 164 163 152 134 115 104 89 79 75 72 74 72 68 64 59 55 48 41 37 33 35 33 24 21 17 12 10
176 183 186 182 181 185 185 177 175 176 172 171 177 181 175 164 158 152 151 148 139 139 143 152 158 158 166 164 149 137 108 88 85 65 27 315 288 272 255 232 237 235 214 208 189 183 182 177 177 165 158 156 156 164 184 213 255 212 213 223 170 168 162 138 118 99 90 83 76 68 61 59 57 52 47 40 32 27 25 25 17 14 13 5 4
179 185 185 181 182 185 181 175 175 174 172 175 175 172 162 151 142 137 142 146 140 141 147 156 161 159 163 158 144 138 122 98 100 98 295 278 262 245 250 239 231 222 190 185 162 156 160 156 151 149 155 145 148 151 166 204 244 260 300 317 175 183 135 144 138 110 102 96 86 79 65 58 58 51 49 43 31 22 7 5 2 1 5 358 358
182 186 184 180 181 179 174 173 171 170 173 175 172 167 161 154 148 147 151 156 158 167 168 163 157 152 155 154 142 133 143 153 163 238 271 273 260 239 231 227 212 179 158 151 139 139 132 128 132 131 109 98 131 140 129 144 137 65 7 20 27 350 101 154 162 121 118 118 103 94 75 61 56 47 50 47 34 25 7 353 351 356 359 355 354
183 187 179 177 178 172 176 180 175 174 177 177 173 167 165 165 160 158 165 173 170 169 170 163 155 151 148 150 144 137 160 201 198 215 242 235 235 216 199 186 172 153 134 128 125 128 119 108 105 110 111 106 123 130 122 126 111 72 48 61 62 27 72 140 165 134 147 148 129 113 89 68 50 42 37 33 28 19 6 353 349 357 358 354 353
184 186 170 171 173 170 183 187 179 179 179 177 175 170 170 174 169 162 168 179 169 158 160 159 153 151 147 146 144 144 167 188 181 184 179 183 192 176 168 154 145 136 123 118 112 111 110 103 98 97 100 98 103 115 112 110 105 86 68 69 70 61 62 49 23 8 182 159 154 154 126 95 63 48 22 13 12 359 360 356 352 1 360 353 353
182 175 163 170 173 175 189 188 179 180 179 177 175 175 178 179 173 165 164 169 158 150 154 156 151 154 156 151 144 149 169 174 161 158 153 162 168 156 149 135 127 123 118 113 105 102 101 98 98 97 98 92 86 95 100 95 96 94 84 73 68 72 75 62 37 0 349 149 165 170 164 164 146 79 14 322 325 345 357 357 355 3 358 351 350
175 165 164 174 177 181 191 187 183 183 181 181 178 180 181 174 174 167 161 163 159 155 157 157 154 157 161 157 155 161 167 161 149 147 149 155 157 146 136 126 116 111 110 109 105 103 101 99 98 96 98 95 86 86 90 90 87 81 80 83 82 87 91 86 77 37 18 30 105 151 174 182 170 134 52 306 296 336 356 360 1 360 354 349 347
168 165 168 175 175 180 189 189 189 185 180 182 182 182 176 170 177 170 160 167 166 164 163 159 159 162 163 162 163 165 160 155 155 151 153 156 152 137 127 122 113 108 108 106 105 105 103 102 98 94 93 92 90 89 86 87 86 79 76 79 81 79 85 82 61 40 44 60 91 131 167 164 155 146 150 230 266 4 2 6 6 360 355 349 345
Height
795 797 799 800 803 804 808 809 812 813 815 816 817 818 819 820 820 821 821 821 821 822 822 823 824 824 824 824 824 824 825 825 825 825 825 825 825 825 825 825 825 826 827 827 828 828 829 829 829 829 829 830 830 830 830 830 830 830 830 830 830 830 830 830 830 830 830 829 829 829 829 829 828 827 827 826 826 826 825 825 825 825 824 823 823
794 797 799 801 803 805 808 809 813 814 815 817 818 819 819 821 821 822 822 822 822 822 823 824 824 825 825 825 826 826 826 826 827 827 827 827 826 826 826 826 826 828 828 829 829 829 830 830 831 831 831 831 831 831 831 831 831 831 831 831 832 832 831 831 831 831 830 830 830 829 830 830 829 828 828 827 827 826 826 826 825 825 824 823 823
794 798 800 802 804 805 808 810 813 814 816 817 818 819 820 822 822 823 823 823 823 823 824 824 825 825 826 826 827 827 827 827 828 828 828 828 827 828 827 828 828 829 829 830 830 830 831 831 832 832 832 832 832 832 832 832 832 832 832 833 833 833 832 832 832 831 831 830 830 830 830 831 831 830 829 828 828 827 826 826 825 825 824 823 823
795 798 800 802 804 806 808 810 813 814 816 817 819 820 821 822 823 824 824 824 824 824 824 825 826 826 827 827 828 828 828 828 829 829 829 829 829 829 829 829 830 830 831 831 831 831 832 833 833 833 833 833 833 833 833 833 833 834 833 834 833 833 833 833 833 832 832 831 831 830 831 832 832 831 830 829 828 828 827 827 826 825 825 824 824
796 798 800 803 805 807 809 811 813 815 817 818 820 821 822 823 824 825 825 825 825 825 825 826 827 827 828 828 829 829 829 830 830 830 830 830 830 831 831 831 831 832 832 832 832 832 833 834 834 834 835 834 834 834 834 834 834 835 834 835 834 834 834 834 833 833 832 832 831 831 832 833 833 832 831 830 829 829 828 828 827 826 826 825 825
796 798 801 803 806 807 809 811 813 815 817 819 820 822 823 824 825 825 826 826 826 826 826 827 828 829 829 829 830 830 830 830 830 831 831 831 831 832 832 832 833 833 833 833 833 834 834 835 835 835 836 836 835 835 835 835 835 835 835 835 835 835 834 834 834 833 833 832 832 832 834 834 833 833 832 831 830 830 829 828 828 827 827 827 826
796 798 801 803 806 807 809 811 814 816 817 819 821 822 823 824 826 826 827 827 827 827 827 828 829 829 830 830 831 831 831 831 831 831 831 832 832 833 833 833 834 834 834 834 834 835 835 836 836 837 837 837 836 836 836 836 836 836 836 836 836 835 835 835 834 834 833 832 832 833 834 834 834 834 833 832 831 831 830 829 829 829 828 828 828
797 799 802 804 806 807 809 812 814 816 818 819 821 822 824 825 826 827 828 828 828 827 827 828 829 830 831 831 831 832 832 832 832 832 832 832 833 833 834 834 834 835 835 836 836 836 836 837 837 837 837 837 837 837 837 837 837 837 837 836 836 836 835 835 834 834 833 833 834 835 834 834 835 834 834 833 832 831 831 830 830 830 830 829 829
798 800 802 805 806 808 810 812 814 816 818 820 821 823 824 825 826 828 829 829 829 829 828 829 830 830 831 832 832 832 832 832 832 832 833 833 834 834 834 834 835 836 836 836 836 837 837 837 837 838 838 838 838 838 838 838 837 837 837 837 837 836 836 836 835 834 833 834 835 835 834 834 835 835 835 834 833 832 832 831 831 831 830 830 829
798 800 803 805 807 808 810 812 814 816 818 820 821 823 824 826 827 828 829 830 831 830 829 829 830 831 832 832 832 833 833 833 832 833 833 833 834 834 835 835 835 836 836 837 837 837 837 837 837 838 838 838 839 838 838 838 838 838 838 838 837 837 836 836 835 834 834 835 835 836 835 835 835 835 835 834 834 833 832 832 832 832 831 830 829
799 802 804 806 808 809 811 813 815 817 819 820 822 824 825 826 827 828 830 831 832 831 830 830 831 831 832 832 833 833 833 833 833 833 833 833 834 834 835 835 836 836 837 837 837 838 837 838 838 838 838 838 839 839 839 839 839 838 838 838 838 838 837 836 835 834 835 835 835 836 836 836 836 836 835 835 834 833 833 833 832 832 831 830 830
800 803 804 806 808 810 812 814 816 818 819 821 823 824 826 826 827 828 830 831 832 832 831 831 831 832 832 833 833 833 833 834 833 833 833 833 834 835 835 836 836 836 837 837 838 838 838 838 838 838 838 838 839 839 839 839 839 839 839 839 838 838 837 836 835 835 835 835 836 836 836 836 836 836 836 835 834 834 834 833 833 832 831 831 830
801 803 805 807 809 812 813 815 817 818 820 822 824 825 827 827 828 828 830 832 833 833 832 832 832 833 833 833 833 834 834 834 834 834 834 834 834 835 835 836 836 837 837 837 838 838 838 838 838 838 838 838 838 839 839 839 840 840 839 839 839 838 838 837 835 835 836 835 836 836 836 837 837 837 836 835 835 834 834 834 833 832 832 831 830
802 804 806 809 810 813 814 816 818 819 821 823 824 826 827 828 829 829 831 832 833 833 832 832 832 833 833 834 834 834 834 834 835 834 834 834 835 835 836 836 836 837 837 837 838 838 838 838 838 838 838 838 838 839 839 839 839 840 840 839 839 839 838 837 836 836 836 836 836 836 836 837 837 837 836 836 835 835 834 834 833 833 832 831 831
803 804 807 810 812 814 816 818 819 821 822 823 826 827 828 829 830 830 832 833 833 833 832 832 832 833 834 834 835 835 835 835 835 835 835 835 835 836 836 836 837 837 837 838 838 838 839 838 838 838 838 838 838 839 839 839 839 839 840 839 839 839 838 837 836 836 836 836 836 836 837 837 837 837 837 836 836 835 834 834 834 833 832 832 831
804 805 808 811 813 816 817 819 820 822 823 825 826 827 829 829 831 831 832 834 834 834 833 832 832 833 834 835 835 835 836 836 836 836 836 836 836 836 836 837 837 838 838 838 838 838 839 839 839 838 838 838 838 839 839 839 839 839 839 839 839 839 838 837 836 836 836 836 836 837 837 838 837 837 837 836 836 835 835 835 834 834 833 833 832
804 806 809 812 814 816 818 820 820 822 824 825 826 827 829 830 831 832 833 835 835 835 833 833 832 833 834 835 835 836 836 836 837 836 837 837 836 837 836 837 837 838 838 838 839 839 839 839 839 839 839 839 839 839 839 839 839 839 839 839 839 838 838 837 837 836 836 837 837 838 838 839 838 837 837 836 836 835 835 835 834 834 834 833 832
805 807 809 812 814 816 818 820 821 822 824 825 826 827 828 830 831 832 834 835 835 835 834 833 833 833 834 834 835 836 836 836 836 836 837 837 837 837 837 837 837 838 838 839 839 839 839 839 839 839 839 839 839 839 839 839 839 839 838 838 838 838 838 837 837 837 836 837 837 838 838 838 838 837 837 836 836 835 835 835 834 834 833 833 832
806 807 809 812 813 816 817 819 821 822 824 825 826 827 828 829 831 833 834 835 836 836 834 834 833 834 835 835 836 836 837 836 837 837 837 837 838 838 838 838 838 838 839 839 839 840 840 840 840 839 839 839 839 839 839 839 839 839 838 838 838 837 837 837 837 837 836 837 838 838 838 838 838 838 837 836 836 835 835 834 834 834 833 832 832
806 807 809 812 813 815 816 819 820 822 824 824 826 827 828 829 831 833 834 836 836 836 835 834 834 835 836 836 837 837 838 837 837 838 838 838 838 838 839 838 838 838 839 839 839 840 840 840 840 839 839 839 839 839 839 839 839 839 838 838 838 837 837 837 838 837 837 838 838 838 838 838 838 837 837 836 835 835 835 834 834 833 833 832 831
807 808 810 812 813 815 816 818 820 821 823 824 826 827 828 829 831 833 834 836 836 836 836 835 835 836 837 837 837 838 838 838 838 838 838 838 838 839 839 839 839 839 839 839 839 839 840 840 840 839 839 839 839 839 839 839 839 838 838 838 837 837 837 838 838 838 839 839 839 838 837 837 838 837 837 836 835 835 834 834 834 833 832 831 831
807 808 810 812 813 815 816 818 819 821 823 824 825 826 828 830 832 834 835 836 836 837 836 836 836 836 837 837 838 839 839 839 839 839 838 838 839 839 839 839 839 839 839 839 839 839 840 840 839 839 839 838 838 838 838 838 838 838 838 838 837 837 837 837 837 838 839 839 838 837 837 837 837 837 837 836 835 835 834 834 833 833 832 831 830
806 808 810 812 813 815 816 818 819 821 822 824 825 826 828 830 832 834 835 836 836 837 837 837 837 837 838 838 838 839 839 839 839 839 839 838 838 838 838 838 839 839 839 839 839 839 839 839 839 839 838 838 837 837 837 837 838 838 838 837 837 837 837 837 838 838 839 838 837 837 837 837 837 837 837 836 835 835 834 834 833 833 832 831 830
806 808 810 812 813 814 816 818 819 821 822 823 825 826 828 830 832 834 835 836 836 837 837 837 837 838 838 838 838 838 838 838 838 839 839 839 838 838 838 838 839 839 839 839 839 839 839 839 838 838 837 837 837 837 837 837 837 837 837 837 836 837 837 837 838 838 838 838 836 837 837 837 837 837 837 836 836 835 834 834 833 832 831 831 830
805 807 810 812 812 813 815 818 819 820 822 823 825 826 828 830 831 833 834 835 836 836 836 836 836 837 837 837 837 837 838 837 838 838 838 838 838 838 838 838 838 838 839 838 838 838 838 838 838 837 837 837 836 837 837 837 837 836 836 836 836 836 837 838 839 838 838 837 837 837 837 837 837 837 837 836 836 835 834 834 833 832 831 831 830
804 807 809 811 812 813 815 817 819 820 821 823 825 827 828 830 831 832 834 835 835 836 836 836 836 836 836 837 837 837 837 837 837 838 838 837 836 837 836 836 836 837 837 837 837 837 837 837 837 836 836 836 836 837 837 837 837 837 836 836 836 837 837 838 839 838 838 838 837 837 837 837 837 837 837 837 836 835 835 834 833 832 831 831 830
803 805 808 810 811 813 815 817 819 820 821 822 824 826 828 830 831 832 833 834 835 835 835 835 835 835 836 836 836 836 837 837 836 836 836 835 835 835 835 835 835 835 835 836 837 836 836 836 836 836 835 836 836 837 837 837 837 837 837 837 837 837 837 838 838 839 839 839 838 838 838 837 837 838 837 837 837 836 835 834 834 833 832 831 830
802 804 807 809 811 813 815 817 818 820 821 822 824 826 828 829 831 833 832 833 834 834 834 834 835 835 835 836 836 836 836 836 836 835 835 834 834 833 833 834 833 834 834 835 835 835 835 835 835 835 835 836 836 837 837 837 838 837 837 837 838 838 838 838 839 839 840 840 839 839 838 838 838 838 837 837 837 836 836 835 834 833 833 832 831
801 802 806 808 811 813 815 817 818 819 820 822 824 826 828 829 831 832 832 833 833 833 834 834 834 834 834 835 835 836 836 836 835 835 834 833 833 832 832 833 832 832 833 834 834 834 835 835 835 835 835 836 836 837 837 837 838 838 838 838 838 838 838 839 839 840 841 840 840 839 839 839 839 838 838 837 837 836 836 836 835 834 833 833 832
800 802 805 808 810 813 815 816 817 819 820 821 824 825 827 829 830 831 831 832 832 832 833 833 833 834 834 835 835 835 835 836 835 834 834 833 832 832 832 832 832 832 833 834 833 834 835 835 836 836 836 836 836 837 837 837 838 838 838 838 839 839 839 839 839 840 841 841 840 840 840 840 839 839 838 838 837 837 836 836 836 835 834 833 833
800 802 805 807 810 812 814 816 817 818 819 821 823 825 827 828 829 830 830 831 831 832 832 832 833 833 834 834 835 835 835 835 835 834 833 832 832 831 832 832 833 833 833 834 834 835 835 836 836 837 837 836 837 837 837 838 837 838 838 839 839 839 840 840 840 841 841 842 842 841 841 841 841 840 839 839 838 837 837 837 836 836 835 834 834
800 802 805 807 810 812 813 815 816 817 819 821 822 824 826 827 828 829 829 830 831 831 832 832 832 833 833 833 834 834 835 834 834 833 832 832 831 832 833 833 833 833 834 834 835 836 836 837 837 838 838 837 838 838 838 838 838 839 839 840 840 840 841 841 841 842 842 843 843 843 842 842 841 841 840 840 839 838 838 837 836 836 835 835 834
799 802 805 807 809 811 813 814 815 816 818 820 822 824 825 826 827 828 829 829 830 830 831 831 832 832 833 833 833 833 833 833 832 832 831 831 831 833 833 834 834 834 834 835 835 836 837 838 838 838 838 838 838 838 839 839 840 840 840 841 841 841 842 842 843 843 843 843 843 844 844 844 843 842 841 840 840 839 838 837 837 836 836 835 835
798 801 804 806 808 810 812 813 814 815 817 819 821 822 824 825 826 827 828 828 829 830 830 831 831 832 832 832 832 832 832 832 831 831 830 830 832 833 833 833 833 834 835 835 836 837 838 838 838 838 839 838 839 839 839 840 841 841 842 842 842 843 843 843 844 844 844 844 844 844 845 845 845 844 843 841 840 839 839 838 837 836 836 835 835
797 800 803 805 807 809 811 812 812 814 816 818 820 821 823 824 825 826 827 828 828 829 829 830 830 831 831 832 832 832 831 831 831 831 830 832 833 833 833 832 833 834 835 836 837 838 839 839 839 839 839 839 839 840 840 841 842 843 843 843 843 844 844 845 845 845 845 845 845 845 845 845 845 845 844 843 842 840 839 838 837 837 836 836 835
796 798 801 804 806 808 809 810 811 813 815 817 819 821 822 823 824 825 826 827 828 828 829 829 830 830 831 831 831 831 831 831 830 831 832 832 833 834 833 832 833 834 836 837 838 839 839 840 840 840 840 839 839 840 842 842 843 844 844 844 844 845 845 846 846 846 846 846 846 846 846 846 846 845 845 844 843 841 840 839 838 838 837 836 835
794 797 799 802 805 807 808 809 810 812 814 817 819 820 821 823 824 824 825 826 827 828 828 829 829 830 830 831 831 831 831 831 831 832 833 833 834 833 833 832 833 835 836 838 839 840 840 841 841 841 841 840 839 841 843 844 844 845 845 845 845 846 846 846 846 846 847 847 847 847 847 847 846 846 845 845 844 843 842 840 839 838 838 837 836
793 796 798 801 803 805 806 807 809 811 814 816 818 819 820 822 823 824 825 826 827 827 828 828 829 829 830 830 830 831 831 832 833 833 833 833 833 833 833 833 834 836 837 838 839 840 841 841 841 841 841 840 839 841 843 844 845 846 846 846 846 847 847 847 847 847 848 848 848 848 848 848 847 847 846 845 845 844 843 842 841 840 838 838 837
792 794 797 800 801 803 805 806 808 810 813 815 816 818 819 820 821 822 824 825 826 827 827 828 828 829 829 829 831 832 833 834 835 834 833 833 833 833 833 834 835 837 838 839 839 840 841 842 842 841 841 841 840 842 844 845 846 846 847 847 847 847 848 848 848 848 849 849 849 849 849 848 848 847 847 846 846 845 844 843 843 842 840 839 837
791 793 796 798 800 801 803 805 807 809 811 813 815 817 818 819 820 822 823 824 825 826 827 828 828 829 829 830 831 832 834 836 835 834 834 834 833 834 834 836 837 838 838 839 840 840 841 842 842 841 841 841 841 842 844 845 846 847 847 848 848 848 848 849 849 849 849 850 850 850 850 849 849 848 848 847 847 846 845 844 843 843 842 841 839
789 792 794 796 797 799 801 803 806 808 810 812 814 816 817 818 819 821 822 823 825 826 827 828 828 829 829 830 832 833 834 835 835 834 834 834 834 835 836 837 838 839 839 840 840 840 841 841 842 842 842 842 842 843 844 845 846 847 848 848 849 849 849 850 850 850 850 850 850 850 850 850 850 850 849 848 847 846 846 845 844 844 843 842 841
788 790 792 793 795 798 800 803 805 807 809 811 813 815 816 817 819 820 822 823 825 826 826 828 829 829 830 830 832 833 833 833 834 834 835 836 836 837 838 839 839 840 840 840 840 840 840 841 841 841 842 842 842 843 844 844 844 845 846 847 849 850 850 850 850 850 850 850 851 851 851 851 850 850 849 849 848 847 847 846 845 844 843 842 841
786 788 790 791 795 797 799 802 805 806 808 810 812 815 816 817 819 820 821 823 824 825 826 827 828 828 829 830 832 833 833 833 834 835 837 837 838 838 839 840 840 840 840 840 840 840 840 841 841 841 842 842 842 843 844 843 842 842 844 844 845 848 850 851 851 851 851 851 851 851 851 851 851 850 850 849 848 848 847 847 846 845 843 843 842
785 786 788 791 793 796 798 801 804 805 807 809 811 814 815 817 819 820 821 823 824 824 825 827 827 828 829 830 832 833 833 833 835 837 838 839 839 840 840 840 840 840 840 840 840 840 840 840 841 841 841 842 843 843 843 844 842 842 842 840 841 844 847 849 850 851 851 851 852 852 852 851 851 850 850 849 849 848 848 847 846 845 844 843 842
784 784 786 789 792 794 797 800 802 804 807 809 811 813 814 817 818 820 821 823 824 825 826 827 827 828 829 830 832 832 832 834 836 838 839 840 840 840 841 840 840 840 840 840 840 840 840 841 841 841 841 841 842 843 843 844 843 843 842 840 840 841 842 846 849 851 852 852 852 852 852 852 851 851 850 850 849 848 848 847 846 845 844 843 842
781 783 785 788 791 794 797 800 801 803 806 808 810 812 814 816 818 819 821 822 824 825 825 827 828 829 829 830 831 830 832 836 838 839 840 840 840 840 841 840 840 840 840 840 840 840 840 841 841 841 841 841 842 843 843 843 843 844 843 842 842 841 841 844 846 849 852 852 852 853 853 852 852 851 850 850 849 849 848 847 846 845 844 843 842
779 781 784 787 791 794 796 798 800 802 804 806 808 810 813 815 817 819 820 822 823 824 825 827 828 829 830 830 830 830 834 838 839 839 840 840 841 841 841 841 841 840 840 840 840 840 840 840 841 841 841 842 842 842 843 843 843 843 843 842 843 842 842 843 842 845 850 852 853 853 853 853 852 851 851 850 849 849 848 847 846 845 844 843 842
778 780 783 787 790 792 794 796 798 800 802 805 807 809 811 814 816 818 819 820 822 824 826 827 828 829 829 830 830 832 836 839 839 839 839 840 840 841 841 840 841 840 840 840 840 840 840 840 840 841 841 842 842 842 843 843 843 844 844 843 843 843 843 843 842 843 844 848 851 852 853 853 852 852 851 850 850 849 848 847 846 845 844 843 842
777 779 782 785 788 790 792 794 796 798 801 803 806 808 810 813 815 816 817 820 822 824 826 827 828 828 829 831 832 835 838 839 839 839 839 840 841 841 841 840 840 840 840 840 840 840 840 840 840 841 841 842 842 843 843 843 844 844 844 844 844 844 844 844 844 843 842 843 846 848 850 852 851 851 851 850 849 848 848 847 846 845 844 843 842
776 779 781 783 786 788 790 793 795 796 799 801 804 806 808 811 813 814 816 819 822 824 826 827 828 829 831 832 834 836 838 838 838 839 840 840 841 841 840 840 840 840 840 840 840 840 840 840 841 841 842 842 843 843 844 844 844 845 845 845 845 845 845 845 845 845 843 843 843 844 846 847 848 850 850 850 849 848 847 846 845 845 844 843 842
775 778 780 781 785 787 788 791 793 795 797 799 801 804 807 809 809 811 814 818 821 822 824 826 827 829 831 832 834 836 836 837 838 839 840 840 841 840 840 841 840 840 841 841 841 841 841 841 841 842 842 843 844 844 845 845 845 846 846 846 846 846 846 846 846 846 845 844 843 843 843 844 845 847 849 849 848 847 846 845 845 844 843 842 841